Tracking 28091 objects as of 30-Sep-2023
HD Live streaming from Space Station
objects crossing your sky now

STARLINK-30344

Track STARLINK-30344 now!
10-day predictions
STARLINK-30344 is classified as:


NORAD ID: 57737
Int'l Code: 2023-131F
Perigee: 523.7 km
Apogee: 526.9 km
Inclination: 43.0 °
Period: 95.0 minutes
Semi major axis: 6896 km
RCS: Unknown
Launch date: September 1, 2023
Source: United States (US)
Launch site: AIR FORCE EASTERN TEST RANGE (AFETR)
Your satellite tracking list
Your tracking list is empty




NASA's NSSDC Master Catalog

Two Line Element Set (TLE):
1 57737U 23131F   23273.50001157  .00038690  00000-0  19842-2 0  9997
2 57737  42.9991 336.6492 0002319 295.6171 226.2743 15.15912924  5565
Source of the keplerian elements: AFSPC